Kalaeloa, HI

6:50 PM HST on April 22, 2018 (GMT -1000)
Kalaeloa (John Rodgers Field)

Weather History for PHJR - June, 2013

Change the Weather History Date:

Saturday, June 29, 2013

  Actual Average (PHHI) Record (PHHI)
Temperature  
Mean Temperature 76 °F -  
Max Temperature 84 °F 79 °F 86 °F (2008)
Min Temperature 69 °F 66 °F 63 °F (2011)
Cooling Degree Days 12    
Growing Degree Days 26 (Base 50)    
Moisture  
Dew Point 66 °F    
Average Humidity 72    
Maximum Humidity 91    
Minimum Humidity 49    
Precipitation  
Precipitation 0.03 in - - ()
Sea Level Pressure  
Sea Level Pressure 30.02 in    
Wind  
Wind Speed 4 mph (East)    
Max Wind Speed 14 mph    
Max Gust Speed 21 mph    
Visibility 10 miles    
Events      
Averages and records for this station are not official NWS values.
T = Trace of Precipitation, MM = Missing Value Source: NWS Daily Summary

Daily Weather History Graph

Daily Weather History Graph

Search for Another Location

Airport or City:

Astronomy

Jun. 29, 2013 Rise Set
Actual Time 5:53 AM HST 7:18 PM HST
Civil Twilight 5:28 AM HST 7:43 PM HST
Nautical Twilight 4:59 AM HST 8:12 PM HST
Astronomical Twilight 4:28 AM HST 8:43 PM HST
Moon No Moon Rise 12:20 PM HST (6/29)
Length of Visible Light 14h 14m
Length of Day
13h 24m
Waning Gibbous, 53% of the Moon is Illuminated
Jun 29
Waning Gibbous
Jun 29
Last Quarter
Jul 7
New
Jul 15
First Quarter
Jul 22
Full

Hourly Weather History & Observations

Time (HST) Temp. Heat Index Dew Point Humidity Pressure Visibility Wind Dir Wind Speed Gust Speed Precip Events Conditions
12:53 AM 72.0 °F - 64.9 °F 78% 30.03 in 10.0 mi Calm Calm - N/A   Partly Cloudy
1:32 AM 71.6 °F - 64.4 °F 78% 30.00 in 10.0 mi Variable 3.5 mph - N/A   Scattered Clouds
1:53 AM 72.0 °F - 66.0 °F 81% 30.01 in 10.0 mi Variable 3.5 mph - N/A   Scattered Clouds
2:53 AM 71.1 °F - 64.9 °F 81% 29.99 in 10.0 mi Variable 3.5 mph - N/A   Partly Cloudy
3:53 AM 72.0 °F - 68.0 °F 87% 30.00 in 10.0 mi Calm Calm - 0.01 in   Mostly Cloudy
4:53 AM 70.0 °F - 66.9 °F 90% 30.00 in 10.0 mi Calm Calm - 0.00 in   Overcast
5:41 AM 69.8 °F - 66.2 °F 88% 29.98 in 10.0 mi Variable 3.5 mph - N/A   Partly Cloudy
5:53 AM 70.0 °F - 66.9 °F 90% 30.01 in 10.0 mi Calm Calm - N/A   Mostly Cloudy
6:53 AM 72.0 °F - 69.1 °F 91% 30.02 in 10.0 mi Calm Calm - 0.01 in   Mostly Cloudy
7:53 AM 73.9 °F - 68.0 °F 82% 30.03 in 10.0 mi Variable 3.5 mph - N/A   Overcast
8:53 AM 79.0 °F - 64.9 °F 62% 30.03 in 10.0 mi ENE 8.1 mph - N/A   Clear
9:53 AM 81.0 °F 82.2 °F 63.0 °F 54% 30.03 in 10.0 mi Variable 5.8 mph - N/A   Partly Cloudy
10:53 AM 82.0 °F 83.0 °F 62.1 °F 51% 30.03 in 10.0 mi East 11.5 mph 19.6 mph N/A   Mostly Cloudy
11:53 AM 84.0 °F 84.9 °F 63.0 °F 49% 30.01 in 10.0 mi ESE 10.4 mph 16.1 mph N/A   Clear
12:53 PM 82.0 °F 84.5 °F 66.9 °F 60% 30.01 in 10.0 mi SE 13.8 mph 20.7 mph N/A   Scattered Clouds
1:53 PM 78.1 °F - 66.9 °F 68% 30.01 in 10.0 mi ESE 9.2 mph 20.7 mph N/A   Mostly Cloudy
2:53 PM 84.0 °F 86.5 °F 66.9 °F 56% 29.99 in 10.0 mi ESE 8.1 mph - 0.01 in   Partly Cloudy
3:53 PM 81.0 °F 83.8 °F 68.0 °F 65% 29.98 in 10.0 mi SE 11.5 mph 20.7 mph N/A   Clear
4:53 PM 82.0 °F 84.1 °F 66.0 °F 58% 29.99 in 10.0 mi ESE 5.8 mph - N/A   Mostly Cloudy
5:53 PM 82.0 °F 84.1 °F 66.0 °F 58% 29.99 in 10.0 mi Variable 4.6 mph - N/A   Mostly Cloudy
6:53 PM 77.0 °F - 64.9 °F 66% 30.02 in 10.0 mi East 6.9 mph - N/A   Clear
7:53 PM 75.9 °F - 64.9 °F 69% 30.04 in 10.0 mi East 4.6 mph - N/A   Partly Cloudy
8:53 PM 75.0 °F - 64.9 °F 71% 30.05 in 10.0 mi ENE 3.5 mph - N/A   Clear
9:33 PM 73.4 °F - 64.4 °F 73% 30.04 in 10.0 mi ENE 4.6 mph - N/A   Partly Cloudy
9:53 PM 73.9 °F - 66.0 °F 76% 30.07 in 10.0 mi Calm Calm - N/A   Partly Cloudy
10:53 PM 73.0 °F - 64.9 °F 76% 30.07 in 10.0 mi Calm Calm - N/A   Scattered Clouds
11:53 PM 73.0 °F - 64.9 °F 76% 30.06 in 10.0 mi ENE 3.5 mph - N/A   Clear